Location: Unspecified
(0.0000°N, 0.0000°E)
Time: 09:38:40
(UTC+00:00)

Vanguard 1 - All Passes

Search period start: 18 December 2014 00:00
Search period end: 28 December 2014 00:00
Orbit: 653 x 3834 km, 34.3° (Epoch: 16 December)

Date Brightness Start Highest point End Pass type
(mag) Time Alt. Az. Time Alt. Az. Time Alt. Az.
18 Dec - 00:00:00 15° E 23:59:45 16° E 00:01:58 10° E visible
18 Dec - 01:47:58 10° NW 02:11:15 81° SW 02:25:46 10° SE visible
18 Dec - 04:21:19 10° W 04:35:14 27° SW 04:44:19 10° SSE visible
18 Dec - 11:47:32 10° S 11:49:51 14° SE 11:52:24 10° ESE daylight
18 Dec - 14:04:38 10° WSW 14:09:50 63° NNW 14:18:36 10° NE daylight
18 Dec - 16:27:35 10° WNW 16:33:31 19° NNW 16:42:00 10° NNE daylight
18 Dec - 18:55:28 10° NNW 19:02:47 14° N 19:11:48 10° NNE visible
18 Dec - 21:19:34 10° NNW 21:35:50 26° NNE 21:53:31 10° ENE visible
18 Dec - 23:43:16 10° NW 00:06:21 58° NE 00:24:39 10° ESE visible
19 Dec - 02:10:39 10° WNW 02:33:07 65° SW 02:47:06 10° SE visible
19 Dec - 04:46:50 10° WSW 04:57:09 19° SW 05:04:33 10° S visible
19 Dec - 12:07:26 10° SSW 12:11:13 26° SE 12:15:56 10° E daylight
19 Dec - 14:26:27 10° W 14:31:39 39° NNW 14:40:07 10° NE daylight
19 Dec - 16:51:16 10° NW 16:56:26 15° N 17:03:11 10° NNE daylight
19 Dec - 19:18:24 10° NNW 19:26:51 15° NNE 19:37:10 10° NE visible
19 Dec - 21:41:09 10° NNW 21:59:16 32° NNE 22:18:16 10° E visible
20 Dec - 00:05:03 10° NW 00:28:48 71° NE 00:46:55 10° ESE visible
20 Dec - 02:33:49 10° WNW 02:54:55 51° SW 03:08:13 10° SSE visible
20 Dec - 05:13:52 10° WSW 05:19:22 13° SW 05:23:54 10° SSW visible
20 Dec - 12:28:10 10° SW 12:32:32 48° SE 12:38:28 10° ENE daylight
20 Dec - 14:48:43 10° W 14:53:43 26° NNW 15:01:19 10° NNE daylight
20 Dec - 17:15:39 10° NNW 17:19:39 12° N 17:24:25 10° NNE daylight
20 Dec - 19:40:33 10° NNW 19:50:52 17° NNE 20:03:28 10° NE visible
20 Dec - 22:02:37 10° NNW 22:22:22 40° NNE 22:42:16 10° E visible
21 Dec - 00:27:01 10° NW 00:51:04 86° NE 01:08:49 10° SE visible
21 Dec - 02:57:35 10° WNW 03:16:45 39° SW 03:29:10 10° SSE visible
21 Dec - 12:49:21 10° SW 12:53:54 89° NW 13:00:26 10° NE daylight
21 Dec - 15:11:34 10° WNW 15:16:02 18° NNW 15:22:12 10° NNE daylight
21 Dec - 17:40:22 10° N 17:43:08 11° N 17:46:13 10° NNE daylight
21 Dec - 20:02:12 10° NNW 20:14:39 21° NNE 20:29:51 10° ENE visible
21 Dec - 22:24:05 10° NW 22:45:09 49° NE 23:05:38 10° ESE visible
22 Dec - 00:49:15 10° WNW 01:13:11 79° SW 01:30:27 10° SE visible
22 Dec - 03:22:07 10° W 03:38:43 30° SW 03:49:55 10° SSE visible
22 Dec - 10:52:54 10° S 10:55:22 14° SE 10:57:52 10° ESE daylight
22 Dec - 13:10:56 10° WSW 13:15:27 49° NNW 13:22:00 10° NE daylight
22 Dec - 15:35:21 10° NW 15:38:36 13° NNW 15:42:35 10° N daylight
22 Dec - 18:03:44 10° N 18:06:49 11° N 18:10:15 10° NNE daylight
22 Dec - 20:23:35 10° NNW 20:38:07 26° NNE 20:55:41 10° ENE visible
22 Dec - 22:45:36 10° NW 23:07:42 61° NE 23:28:26 10° ESE visible
23 Dec - 01:11:50 10° WNW 01:35:12 64° SW 01:51:51 10° SE visible
23 Dec - 03:47:34 10° W 04:00:56 22° SW 04:10:28 10° S visible
23 Dec - 11:13:03 10° SSW 11:16:53 27° SE 11:20:58 10° E daylight
23 Dec - 13:32:58 10° W 13:37:13 29° NNW 13:43:10 10° NNE daylight
23 Dec - 18:25:19 10° N 18:30:35 12° NNE 18:36:45 10° NE visible
23 Dec - 20:44:50 10° NNW 21:01:13 32° NNE 21:20:43 10° E visible
23 Dec - 23:07:14 10° NW 23:30:04 74° NE 23:50:46 10° ESE visible
24 Dec - 01:34:55 10° WNW 01:57:13 51° SW 02:13:03 10° SE visible
24 Dec - 04:14:08 10° WSW 04:23:28 16° SSW 04:30:40 10° S visible
24 Dec - 11:33:57 10° SW 11:38:17 54° SE 11:43:12 10° ENE daylight
24 Dec - 13:55:37 10° WNW 13:59:13 18° NNW 14:03:53 10° NNE daylight
24 Dec - 18:46:23 10° N 18:54:14 15° NNE 19:03:56 10° NE visible
24 Dec - 21:06:04 10° NNW 21:24:00 41° NE 21:44:56 10° E visible
24 Dec - 23:29:05 10° NW 23:52:19 88° NE 00:12:46 10° SE visible
25 Dec - 01:58:36 10° W 02:19:19 40° SW 02:34:07 10° SSE visible
25 Dec - 04:42:28 10° SW 04:46:20 11° SSW 04:49:45 10° SSW visible
25 Dec - 11:55:18 10° WSW 11:59:41 75° NW 12:04:54 10° NE daylight
25 Dec - 14:19:31 10° NW 14:21:27 11° NNW 14:23:38 10° N daylight
25 Dec - 19:07:20 10° NNW 19:17:38 19° NNE 19:30:53 10° ENE visible
25 Dec - 21:27:20 10° NW 21:46:31 51° NE 22:08:27 10° ESE visible
25 Dec - 23:51:12 10° WNW 00:14:30 77° SW 00:34:28 10° SE visible
26 Dec - 02:23:01 10° W 02:41:36 31° SW 02:55:04 10° SSE visible
26 Dec - 09:57:34 10° SSW 10:00:58 18° SSE 10:04:02 10° ESE daylight
26 Dec - 12:17:05 10° WSW 12:21:12 38° NNW 12:26:09 10° NE daylight
26 Dec - 19:28:14 10° NNW 19:40:42 25° NNE 19:57:04 10° ENE visible
26 Dec - 21:48:42 10° NW 22:08:51 62° NE 22:31:23 10° ESE visible
27 Dec - 00:13:41 10° WNW 00:36:41 64° SW 00:55:58 10° SE visible
27 Dec - 02:48:20 10° W 03:04:10 24° SSW 03:15:54 10° SSE visible
27 Dec - 10:18:08 10° SSW 10:22:37 33° SSE 10:26:37 10° E daylight
27 Dec - 12:39:27 10° W 12:42:53 21° NNW 12:46:56 10° NNE daylight
27 Dec - 19:49:11 10° NNW 20:03:25 32° NE 20:22:22 10° E visible
27 Dec - 22:10:13 10° NW 22:31:05 76° NE 22:53:50 10° ESE visible
